Location: Unspecified
(0.0000°N, 0.0000°E)
Time: 08:58:57
(UTC+00:00)

N. Korean satellite - Pass Details

Date: 26 March 2017
Orbit: 462 x 516 km, 97.2° (Epoch: 17 August)

Event Time Altitude Azimuth Distance (km) Brightness Sun altitude
Rises 19:17:56 0° 191° (S) 2,614 10.4 -18.1°
Reaches altitude 10° 19:20:22 10° 206° (SSW) 1,717 9.6 -18.7°
Maximum altitude 19:23:17 22° 258° (WSW) 1,121 9.2 -19.4°
Drops below altitude 10° 19:26:10 10° 311° (NW) 1,686 10.0 -20.1°
Sets 19:28:32 0° 327° (NNW) 2,552 10.7 -20.7°
